2023/09/27 00:00:00, 6.3,19.9
2023/09/27 00:10:00, 6.5,20.4
2023/09/27 00:20:00, 6.7,20.1
2023/09/27 00:30:00, 7.0,20.2
2023/09/27 00:40:00, 7.3,20.2
2023/09/27 00:50:00, 7.5,20.2
2023/09/27 01:00:00, 7.6,20.1
2023/09/27 01:10:00, 8.0,19.9
2023/09/27 01:20:00, 8.2,20.1
2023/09/27 01:30:00, 8.2,20.0
2023/09/27 01:40:00, 8.2,20.3
2023/09/27 01:50:00, 8.4,20.3
2023/09/27 02:00:00, 8.4,20.2
2023/09/27 02:10:00, 8.3,20.2
2023/09/27 02:20:00, 7.9,20.2
2023/09/27 02:30:00, 7.4,20.2
2023/09/27 02:40:00, 7.3,20.3
2023/09/27 02:50:00, 7.3,20.2
2023/09/27 03:00:00, 7.5,20.5
2023/09/27 03:10:00, 7.7,20.3
2023/09/27 03:20:00, 8.0,20.3
2023/09/27 03:30:00, 8.2,20.4
2023/09/27 03:40:00, 8.2,20.2
2023/09/27 03:50:00, 7.7,20.2
2023/09/27 04:00:00, 7.3,20.2
2023/09/27 04:10:00, 7.0,20.3
2023/09/27 04:20:00, 6.9,20.3
2023/09/27 04:30:00, 7.2,20.4
2023/09/27 04:40:00, 7.3,20.2
2023/09/27 04:50:00, 7.4,20.2
2023/09/27 05:00:00, 7.2,20.0
2023/09/27 05:10:00, 6.8,19.9
2023/09/27 05:20:00, 6.8,19.8
2023/09/27 05:30:00, 6.9,19.8
2023/09/27 05:40:00, 7.0,19.8
2023/09/27 05:50:00, 7.0,19.8
2023/09/27 06:00:00, 7.0,19.6
2023/09/27 06:10:00, 7.0,19.6
2023/09/27 06:20:00, 7.0,19.8
2023/09/27 06:30:00, 7.0,20.2
2023/09/27 06:40:00, 6.9,20.3
2023/09/27 06:50:00, 6.9,20.4
2023/09/27 07:00:00, 7.0,20.6
2023/09/27 07:10:00, 7.3,20.6
2023/09/27 07:20:00, 7.2,20.7
2023/09/27 07:30:00, 6.9,20.9
2023/09/27 07:40:00, 6.9,21.5
2023/09/27 07:50:00, 7.3,21.4
2023/09/27 08:00:00, 7.4,21.9
2023/09/27 08:10:00, 7.2,22.6
2023/09/27 08:20:00, 7.0,23.1
2023/09/27 08:30:00, 7.1,25.4
2023/09/27 08:40:00, 7.4,26.9
2023/09/27 08:50:00, 7.4,29.8
2023/09/27 09:00:00, 7.2,28.5
2023/09/27 09:10:00, 7.0,27.6
2023/09/27 09:20:00, 7.2,29.2
2023/09/27 09:30:00, 7.6,30.2
2023/09/27 09:40:00, 7.5,29.1
2023/09/27 09:50:00, 7.3,27.9
2023/09/27 10:00:00, 7.3,26.8
2023/09/27 10:10:00, 6.9,25.6
2023/09/27 10:20:00, 6.3,24.9
2023/09/27 10:30:00, 6.2,23.9
2023/09/27 10:40:00, 6.4,23.8
2023/09/27 10:50:00, 7.0,24.4
2023/09/27 11:00:00, 6.9,24.8
2023/09/27 11:10:00, 6.6,25.0
2023/09/27 11:20:00, 6.8,24.8
2023/09/27 11:30:00, 6.9,24.9
2023/09/27 11:40:00, 6.8,24.6
2023/09/27 11:50:00, 6.8,24.4
2023/09/27 12:00:00, 6.8,24.2
2023/09/27 12:10:00, 6.9,24.5
2023/09/27 12:20:00, 7.1,24.9
2023/09/27 12:30:00, 7.3,26.4
2023/09/27 12:40:00, 7.3,27.6
2023/09/27 12:50:00, 7.3,28.3
2023/09/27 13:00:00, 7.3,28.7
2023/09/27 13:10:00, 7.4,29.4
2023/09/27 13:20:00, 7.4,28.8
2023/09/27 13:30:00, 7.3,27.4
2023/09/27 13:40:00, 7.3,26.5
2023/09/27 13:50:00, 7.2,26.4
2023/09/27 14:00:00, 7.2,27.2
2023/09/27 14:10:00, 7.1,26.5
2023/09/27 14:20:00, 6.9,25.8
2023/09/27 14:30:00, 6.0,25.1
2023/09/27 14:40:00, 5.8,25.7
2023/09/27 14:50:00, 6.3,26.1
2023/09/27 15:00:00, 6.3,26.0
2023/09/27 15:10:00, 6.2,25.5
2023/09/27 15:20:00, 6.0,25.1
2023/09/27 15:30:00, 5.8,24.7
2023/09/27 15:40:00, 5.8,24.3
2023/09/27 15:50:00, 5.8,24.3
2023/09/27 16:00:00, 5.9,24.3
2023/09/27 16:10:00, 5.7,24.0
2023/09/27 16:20:00, 5.9,24.4
2023/09/27 16:30:00, 6.1,24.7
2023/09/27 16:40:00, 5.9,24.0
2023/09/27 16:50:00, 5.9,24.0
2023/09/27 17:00:00, 6.0,24.1
2023/09/27 17:10:00, 6.0,23.9
2023/09/27 17:20:00, 6.0,23.7
2023/09/27 17:30:00, 5.8,23.6
2023/09/27 17:40:00, 5.7,23.4
2023/09/27 17:50:00, 5.5,23.3
2023/09/27 18:00:00, 5.3,23.3
2023/09/27 18:10:00, 5.2,23.0
2023/09/27 18:20:00, 5.2,23.1
2023/09/27 18:30:00, 5.1,22.9
2023/09/27 18:40:00, 5.2,22.8
2023/09/27 18:50:00, 5.2,22.9
2023/09/27 19:00:00, 5.2,22.7
2023/09/27 19:10:00, 5.2,22.7
2023/09/27 19:20:00, 5.2,22.4
2023/09/27 19:30:00, 5.2,22.5
2023/09/27 19:40:00, 5.1,22.5
2023/09/27 19:50:00, 5.2,22.1
2023/09/27 20:00:00, 5.1,22.2
2023/09/27 20:10:00, 5.2,22.1
2023/09/27 20:20:00, 5.3,22.0
2023/09/27 20:30:00, 5.4,21.7
2023/09/27 20:40:00, 5.6,21.9
2023/09/27 20:50:00, 5.9,21.6
2023/09/27 21:00:00, 6.2,21.7
2023/09/27 21:10:00, 6.6,21.6
2023/09/27 21:20:00, 7.3,21.4
2023/09/27 21:30:00, 7.7,21.2
2023/09/27 21:40:00, 8.0,21.0
2023/09/27 21:50:00, 8.6,21.1
2023/09/27 22:00:00, 1.9,20.9
2023/09/27 22:10:00, 1.6,20.8
2023/09/27 22:20:00, 8.3,20.7
2023/09/27 22:30:00, 8.3,20.9
2023/09/27 22:40:00, 7.1,21.0
2023/09/27 22:50:00, 6.3,20.9
2023/09/27 23:00:00, 5.8,21.2
2023/09/27 23:10:00, 5.5,21.1
2023/09/27 23:20:00, 5.5,21.2
2023/09/27 23:30:00, 5.5,21.2
2023/09/27 23:40:00, 5.6,21.0
2023/09/27 23:50:00, 5.6,21.0
